Weather History for KAKO - October, 2011

Change the Weather History Date:

Friday, October 7, 2011

  Actual Average Record
Temperature  
Mean Temperature 57 °F 53 °F  
Max Temperature 72 °F 67 °F 88 °F (1942)
Min Temperature 41 °F 40 °F 22 °F (1970)
Degree Days  
Heating Degree Days 8    
Month to date heating degree days 8  
Cooling Degree Days 0    
Month to date cooling degree days 16  
Growing Degree Days 6 (Base 50)    
Moisture  
Dew Point 22 °F    
Average Humidity 30    
Maximum Humidity 50    
Minimum Humidity 10    
Precipitation  
Precipitation 0.05 in 0.05 in 1.01 in (1993)
Month to date precipitation 0.05 0.30  
Year to date precipitation 1.63 14.95  
Sea Level Pressure  
Sea Level Pressure 29.74 in    
Wind  
Wind Speed 13 mph (SW)    
Max Wind Speed 29 mph    
Max Gust Speed 38 mph    
Visibility 10 miles    
Events Rain    
T = Trace of Precipitation, MM = Missing Value Source: NWS Daily Summary

Daily Weather History Graph

Daily Weather History Graph

Search for Another Location

Airport or City:

Trip Planner

Search our weather history database for the weather conditions in past years. The results will help you decide how hot, cold, wet, or windy it might be!

Date:

Astronomy

Oct. 07, 2011 Rise Set
Actual Time 6:54 AM MDT 6:25 PM MDT
Civil Twilight 6:27 AM MDT 6:52 PM MDT
Nautical Twilight 5:56 AM MDT 7:24 PM MDT
Astronomical Twilight 5:24 AM MDT 7:55 PM MDT
Moon 4:10 PM MDT (10/7) 2:45 AM MDT (10/7)
Length of Visible Light 12h 25m
Length of Day
11h 30m
Waxing Gibbous, 84% of the Moon is Illuminated
Oct 7
Waxing Gibbous
Oct 11
Full
Oct 19
Last Quarter
Oct 26
New
Nov 2
First Quarter

Hourly Weather History & Observations

Time (MDT) Temp. Windchill Dew Point Humidity Pressure Visibility Wind Dir Wind Speed Gust Speed Precip Events Conditions
12:53 AM 53.1 °F - 16.0 °F 23% 29.61 in 10.0 mi West 12.7 mph 23.0 mph N/A   Mostly Cloudy
1:53 AM 51.1 °F - 15.1 °F 24% 29.62 in 10.0 mi West 12.7 mph - N/A   Mostly Cloudy
2:53 AM 50.0 °F - 16.0 °F 26% 29.66 in 10.0 mi SW 8.1 mph - N/A   Overcast
3:53 AM 44.1 °F 40.1 °F 17.1 °F 34% 29.68 in 10.0 mi WSW 6.9 mph - N/A   Overcast
4:53 AM 44.1 °F - 19.0 °F 37% 29.70 in 10.0 mi Calm Calm - N/A   Clear
5:53 AM 42.1 °F 36.6 °F 18.0 °F 38% 29.73 in 10.0 mi SW 9.2 mph - N/A   Clear
6:53 AM 44.1 °F 37.4 °F 15.1 °F 31% 29.75 in 10.0 mi WSW 13.8 mph - N/A   Clear
7:06 AM 44.6 °F 37.2 °F 15.8 °F 31% 29.83 in 10.0 mi WSW 17.3 mph - N/A   Clear
7:53 AM 46.0 °F 40.2 °F 15.1 °F 29% 29.78 in 10.0 mi SW 12.7 mph - N/A   Clear
8:53 AM 54.0 °F - 12.0 °F 19% 29.77 in 10.0 mi SW 18.4 mph - N/A   Clear
11:53 AM 66.0 °F - 12.0 °F 12% 29.74 in 10.0 mi SSW 21.9 mph 28.8 mph N/A   Clear
12:53 PM 69.1 °F - 10.0 °F 10% 29.72 in 10.0 mi SSW 27.6 mph 34.5 mph N/A   Clear
1:53 PM 70.0 °F - 12.0 °F 11% 29.71 in 10.0 mi SSW 21.9 mph 32.2 mph N/A   Partly Cloudy
2:53 PM 71.1 °F - 18.0 °F 13% 29.70 in 10.0 mi SW 21.9 mph 33.4 mph N/A   Clear
3:53 PM 71.1 °F - 19.9 °F 14% 29.73 in 10.0 mi SSW 23.0 mph 34.5 mph N/A   Partly Cloudy
4:53 PM 68.0 °F - 25.0 °F 20% 29.75 in 10.0 mi SSW 15.0 mph 21.9 mph N/A   Partly Cloudy
5:53 PM 66.9 °F - 28.9 °F 24% 29.76 in 10.0 mi South 8.1 mph - N/A   Overcast
6:53 PM 63.0 °F - 33.1 °F 33% 29.81 in 10.0 mi SSW 8.1 mph 21.9 mph 0.00 in Rain Light Rain
7:14 PM 60.8 °F - 35.6 °F 39% 29.88 in 10.0 mi West 13.8 mph - 0.00 in   Mostly Cloudy
7:53 PM 54.0 °F - 36.0 °F 51% 29.82 in 10.0 mi West 8.1 mph - 0.00 in   Partly Cloudy
8:53 PM 53.1 °F - 36.0 °F 52% 29.80 in 10.0 mi West 5.8 mph - N/A   Clear
9:53 PM 57.9 °F - 34.0 °F 41% 29.78 in 10.0 mi WSW 13.8 mph - 0.00 in Rain Light Rain
10:53 PM 55.0 °F - 36.0 °F 49% 29.76 in 10.0 mi West 9.2 mph - 0.00 in   Overcast